User: anonymous   Login
Location: Unspecified
(0.0000°N, 0.0000°E)
Time: 07:34:15
(UTC+00:00)
Language:

DMSP F15 (USA 147) - Orbit

View from above orbital plane
View from above orbital plane
View from above satellite
View from above satellite

Ground track
Ground track

The orbit data is extracted from the following two-line orbital elements,

1 25991U 99067A   18112.06616172 0.00000000  00000-0  00000-0 0    02
2 25991  98.8624  72.3432 0010069 189.6290 170.3709 14.16569423    05
Epoch (UTC): 22 April 2018 01:35:16
Eccentricity: 0.0010069
inclination: 98.8624°
perigee height: 830 km
apogee height: 844 km
right ascension of ascending node: 72.3432°
argument of perigee: 189.6290°
revolutions per day: 14.16569423
mean anomaly at epoch: 170.3709°
orbit number at epoch: 0

The dashed part of the orbit path shows where the satellite is in the earth's shadow,  

DLR